| time (UTC) | temp C | wind direction | speed KPH | gust KPH | rain 1hr cm | rain 24hr cm | rain mn cm | humidity % | barometer mb |
| 20260505052607 | 13 | 62 | 4.8 | 9.7 | 0.00 | 0.15 | 0.15 | 84 | 1009.6 |
| 20260505051607 | 13 | 79 | 4.8 | 6.4 | 0.00 | 0.15 | 0.15 | 83 | 1009.4 |
| 20260505050607 | 12 | 82 | 1.6 | 4.8 | 0.00 | 0.15 | 0.15 | 84 | 1009.5 |
| 20260505041607 | 12 | 58 | 4.8 | 6.4 | 0.00 | 0.15 | 0.15 | 84 | 1009.5 |
| 20260505040607 | 12 | 60 | 4.8 | 6.4 | 0.00 | 0.15 | 0.15 | 87 | 1009.6 |
| 20260505035607 | 12 | 56 | 3.2 | 6.4 | 0.00 | 0.15 | 0.15 | 88 | 1009.7 |
| 20260505034607 | 12 | 54 | 3.2 | 6.4 | 0.00 | 0.15 | 0.15 | 86 | 1009.8 |
| 20260505033607 | 12 | 62 | 4.8 | 6.4 | 0.00 | 0.15 | 0.15 | 85 | 1009.9 |
| 20260505032607 | 12 | 74 | 4.8 | 6.4 | 0.00 | 0.15 | 0.15 | 84 | 1009.9 |
| 20260505031607 | 12 | 71 | 4.8 | 9.7 | 0.00 | 0.15 | 0.15 | 84 | 1010.0 |
| 20260505030607 | 13 | 65 | 4.8 | 9.7 | 0.00 | 0.15 | 0.15 | 82 | 1010.1 |
| 20260505025607 | 13 | 76 | 1.6 | 4.8 | 0.00 | 0.15 | 0.15 | 83 | 1010.3 |
| 20260505024607 | 13 | 98 | 0.0 | 4.8 | 0.00 | 0.15 | 0.15 | 83 | 1010.4 |
| 20260505023607 | 12 | 93 | 1.6 | 6.4 | 0.03 | 0.15 | 0.15 | 84 | 1010.5 |
| 20260505022607 | 12 | 63 | 4.8 | 9.7 | 0.13 | 0.15 | 0.15 | 84 | 1010.5 |
| 20260505021607 | 12 | 76 | 4.8 | 9.7 | 0.13 | 0.15 | 0.15 | 86 | 1010.5 |
| 20260505020607 | 13 | 69 | 3.2 | 6.4 | 0.13 | 0.15 | 0.15 | 84 | 1010.7 |
| 20260505015607 | 13 | 71 | 3.2 | 9.7 | 0.13 | 0.15 | 0.15 | 82 | 1010.7 |
| 20260505014607 | 13 | 134 | 4.8 | 6.4 | 0.15 | 0.15 | 0.15 | 80 | 1011.0 |
| 20260505013607 | 13 | 135 | 4.8 | 11.3 | 0.13 | 0.13 | 0.13 | 82 | 1011.2 |
| 20260505012607 | 13 | 159 | 1.6 | 1.6 | 0.03 | 0.03 | 0.03 | 77 | 1011.2 |
| 20260505011607 | 13 | 166 | 1.6 | 6.4 | 0.03 | 0.03 | 0.03 | 76 | 1011.4 |
| 20260505010607 | 13 | 58 | 3.2 | 4.8 | 0.03 | 0.03 | 0.03 | 72 | 1011.5 |
| 20260505005607 | 13 | 45 | 3.2 | 6.4 | 0.03 | 0.03 | 0.03 | 74 | 1011.6 |
| 20260505004607 | 13 | 49 | 6.4 | 11.3 | 0.00 | 0.00 | 0.00 | 74 | 1011.6 |
| 20260505003607 | 13 | 32 | 1.6 | 3.2 | 0.00 | 0.00 | 0.00 | 76 | 1011.7 |
| 20260505002607 | 13 | 32 | 3.2 | 4.8 | 0.00 | 0.00 | 0.00 | 74 | 1011.9 |
| 20260505001607 | 13 | 32 | 3.2 | 4.8 | 0.00 | 0.00 | 0.00 | 74 | 1011.9 |
| 20260505000607 | 13 | 34 | 3.2 | 6.4 | 0.00 | 0.00 | 0.00 | 74 | 1011.8 |
| 20260504235607 | 13 | 33 | 3.2 | 6.4 | 0.00 | 0.00 | 0.00 | 74 | 1011.8 |
| 20260504234607 | 13 | 40 | 4.8 | 9.7 | 0.00 | 0.00 | 0.00 | 74 | 1011.9 |
| 20260504233607 | 13 | 44 | 6.4 | 14.5 | 0.00 | 0.00 | 0.00 | 73 | 1011.7 |
| 20260504232607 | 13 | 37 | 6.4 | 12.9 | 0.00 | 0.00 | 0.00 | 73 | 1011.9 |
| 20260504231607 | 14 | 42 | 9.7 | 16.1 | 0.00 | 0.00 | 0.00 | 73 | 1012.0 |
| 20260504230607 | 13 | 42 | 9.7 | 16.1 | 0.00 | 0.00 | 0.00 | 73 | 1012.1 |
| 20260504225609 | 14 | 34 | 8.0 | 16.1 | 0.00 | 0.00 | 0.00 | 73 | 1012.2 |
| 20260504224607 | 14 | 44 | 11.3 | 17.7 | 0.00 | 0.00 | 0.00 | 73 | 1012.2 |
| 20260504223607 | 14 | 40 | 9.7 | 17.7 | 0.00 | 0.00 | 0.00 | 73 | 1012.4 |
| 20260504222607 | 14 | 40 | 11.3 | 16.1 | 0.00 | 0.00 | 0.00 | 71 | 1012.4 |
| 20260504221607 | 14 | 46 | 9.7 | 16.1 | 0.00 | 0.00 | 0.00 | 71 | 1012.4 |
| 20260504220607 | 14 | 32 | 6.4 | 14.5 | 0.00 | 0.00 | 0.00 | 70 | 1012.4 |
| 20260504215607 | 14 | 36 | 6.4 | 12.9 | 0.00 | 0.00 | 0.00 | 70 | 1012.4 |
| 20260504214607 | 15 | 33 | 6.4 | 11.3 | 0.00 | 0.00 | 0.00 | 69 | 1012.5 |
| 20260504213607 | 15 | 32 | 4.8 | 12.9 | 0.00 | 0.00 | 0.00 | 69 | 1012.7 |
| 20260504212607 | 15 | 40 | 4.8 | 12.9 | 0.00 | 0.00 | 0.00 | 68 | 1012.8 |
| 20260504211607 | 15 | 36 | 4.8 | 9.7 | 0.00 | 0.00 | 0.00 | 67 | 1012.8 |
| 20260504210607 | 15 | 30 | 3.2 | 9.7 | 0.00 | 0.00 | 0.00 | 68 | 1012.9 |
| 20260504205608 | 15 | 34 | 3.2 | 9.7 | 0.00 | 0.00 | 0.00 | 67 | 1012.9 |
| 20260504204608 | 15 | 31 | 3.2 | 6.4 | 0.00 | 0.00 | 0.00 | 67 | 1012.8 |
| 20260504203608 | 15 | 38 | 4.8 | 9.7 | 0.00 | 0.00 | 0.00 | 67 | 1012.8 |
| 20260504202608 | 15 | 32 | 6.4 | 11.3 | 0.00 | 0.00 | 0.00 | 67 | 1012.7 |
| 20260504201608 | 15 | 42 | 6.4 | 11.3 | 0.00 | 0.00 | 0.00 | 66 | 1012.6 |
| 20260504200608 | 15 | 36 | 4.8 | 9.7 | 0.00 | 0.00 | 0.00 | 66 | 1012.7 |
| 20260504195608 | 15 | 45 | 6.4 | 12.9 | 0.00 | 0.00 | 0.00 | 65 | 1012.6 |
| 20260504194608 | 15 | 33 | 4.8 | 9.7 | 0.00 | 0.00 | 0.00 | 65 | 1012.7 |
| 20260504193608 | 16 | 39 | 6.4 | 11.3 | 0.00 | 0.00 | 0.00 | 64 | 1012.5 |
| 20260504192608 | 16 | 41 | 6.4 | 14.5 | 0.00 | 0.00 | 0.00 | 62 | 1012.6 |
| 20260504191608 | 16 | 37 | 4.8 | 9.7 | 0.00 | 0.00 | 0.00 | 61 | 1012.6 |
| 20260504190608 | 17 | 32 | 3.2 | 6.4 | 0.00 | 0.00 | 0.00 | 58 | 1012.5 |
| 20260504185608 | 17 | 33 | 1.6 | 4.8 | 0.00 | 0.00 | 0.00 | 57 | 1012.6 |
| 20260504184608 | 16 | 19 | 0.0 | 1.6 | 0.00 | 0.00 | 0.00 | 59 | 1012.5 |
| 20260504183608 | 17 | 0.0 | 0.0 | 0.00 | 0.00 | 0.00 | 59 | 1012.5 | |
| 20260504182608 | 17 | 0.0 | 0.0 | 0.00 | 0.00 | 0.00 | 59 | 1012.5 | |
| 20260504181608 | 17 | 0.0 | 1.6 | 0.00 | 0.00 | 0.00 | 58 | 1012.6 | |
| 20260504180608 | 17 | 0.0 | 1.6 | 0.00 | 0.00 | 0.00 | 56 | 1012.6 | |
| 20260504175608 | 18 | 0.0 | 0.0 | 0.00 | 0.00 | 0.00 | 55 | 1012.5 | |
| 20260504174608 | 18 | 0.0 | 1.6 | 0.00 | 0.00 | 0.00 | 55 | 1012.5 | |
| 20260504173608 | 18 | 0.0 | 1.6 | 0.00 | 0.00 | 0.00 | 53 | 1012.5 | |
| 20260504172608 | 18 | 327 | 1.6 | 3.2 | 0.00 | 0.00 | 0.00 | 52 | 1012.6 |
| 20260504171608 | 18 | 236 | 4.8 | 9.7 | 0.00 | 0.00 | 0.00 | 52 | 1012.5 |
| 20260504170608 | 18 | 225 | 8.0 | 12.9 | 0.00 | 0.00 | 0.00 | 50 | 1012.5 |
| 20260504150608 | 21 | 274 | 1.6 | 3.2 | 0.00 | 0.00 | 0.00 | 44 | 1013.0 |
| 20260504140608 | 21 | 250 | 0.0 | 3.2 | 0.00 | 0.00 | 0.00 | 44 | 1013.3 |
| 20260504130608 | 23 | 217 | 1.6 | 9.7 | 0.00 | 0.00 | 0.00 | 40 | 1013.7 |
| 20260504110607 | 22 | 295 | 0.0 | 3.2 | 0.00 | 0.00 | 0.00 | 41 | 1014.4 |
| 20260504100608 | 21 | 286 | 1.6 | 3.2 | 0.00 | 0.00 | 0.00 | 43 | 1014.9 |
| 20260504081607 | 18 | 316 | 1.6 | 4.8 | 0.00 | 0.00 | 0.00 | 46 | 1015.3 |
| 20260504080607 | 18 | 275 | 1.6 | 4.8 | 0.00 | 0.00 | 0.00 | 46 | 1015.2 |